Total_Precipitation_Accumulation
0.00 0.01 0.04 0.05 0.03 0.05 0.05 0.03 0.05 0.05 0.04 0.02 0.02 0.02 0.03 0.03 0.09 0.14 0.15 0.08 0.05 0.05 0.05 0.13 0.17 0.09 0.09 0.11 0.12 0.14 0.20 0.22 0.19 0.14 0.17 0.18 0.14 0.12 0.15 0.12 0.13 0.19 0.07
0.00 0.01 0.04 0.08 0.07 0.07 0.07 0.05 0.07 0.07 0.03 0.02 0.03 0.03 0.03 0.06 0.11 0.11 0.08 0.03 0.02 0.03 0.05 0.13 0.18 0.13 0.12 0.15 0.19 0.24 0.30 0.27 0.20 0.13 0.15 0.16 0.15 0.15 0.17 0.15 0.22 0.21 0.10
0.00 0.01 0.03 0.08 0.09 0.08 0.07 0.06 0.13 0.13 0.06 0.05 0.07 0.06 0.04 0.04 0.05 0.05 0.04 0.02 0.01 0.01 0.03 0.11 0.16 0.14 0.15 0.20 0.24 0.23 0.28 0.29 0.22 0.13 0.11 0.32 0.35 0.19 0.17 0.25 0.24 0.14 0.13
0.00 0.00 0.02 0.06 0.11 0.10 0.08 0.11 0.23 0.22 0.14 0.09 0.08 0.07 0.04 0.03 0.08 0.15 0.14 0.04 0.02 0.01 0.02 0.08 0.14 0.12 0.13 0.22 0.25 0.21 0.19 0.17 0.19 0.14 0.20 0.40 0.46 0.29 0.31 0.33 0.27 0.17 0.15
0.00 0.02 0.11 0.14 0.11 0.10 0.12 0.22 0.35 0.31 0.25 0.16 0.08 0.05 0.04 0.04 0.07 0.14 0.10 0.05 0.01 0.01 0.02 0.06 0.10 0.10 0.10 0.13 0.16 0.14 0.16 0.25 0.30 0.25 0.26 0.30 0.41 0.36 0.36 0.36 0.34 0.22 0.19
0.00 0.02 0.09 0.14 0.12 0.12 0.20 0.31 0.34 0.37 0.40 0.25 0.11 0.05 0.07 0.08 0.09 0.12 0.11 0.05 0.01 0.01 0.01 0.02 0.05 0.08 0.09 0.10 0.11 0.13 0.21 0.29 0.31 0.23 0.24 0.22 0.28 0.30 0.28 0.31 0.33 0.29 0.21
0.00 0.02 0.04 0.14 0.14 0.16 0.25 0.32 0.30 0.35 0.41 0.28 0.11 0.10 0.11 0.07 0.07 0.10 0.12 0.05 0.02 0.00 0.00 0.01 0.03 0.05 0.07 0.09 0.09 0.12 0.15 0.11 0.11 0.14 0.24 0.27 0.22 0.19 0.22 0.27 0.32 0.30 0.24
0.00 0.01 0.03 0.09 0.11 0.14 0.24 0.32 0.27 0.28 0.31 0.22 0.12 0.12 0.09 0.08 0.08 0.10 0.07 0.03 0.00 0.00 0.00 0.01 0.03 0.04 0.05 0.06 0.10 0.13 0.10 0.03 0.01 0.03 0.10 0.24 0.32 0.26 0.18 0.24 0.29 0.23 0.20
0.02 0.01 0.01 0.02 0.03 0.07 0.16 0.26 0.29 0.29 0.26 0.14 0.11 0.08 0.09 0.09 0.07 0.05 0.03 0.01 0.00 0.00 0.00 0.01 0.02 0.02 0.02 0.03 0.06 0.08 0.05 0.01 0.00 0.01 0.03 0.17 0.22 0.18 0.15 0.19 0.26 0.29 0.28
0.03 0.01 0.01 0.01 0.01 0.03 0.06 0.15 0.27 0.30 0.25 0.15 0.11 0.11 0.10 0.07 0.04 0.03 0.01 0.00 0.00 0.00 0.00 0.00 0.01 0.01 0.01 0.01 0.02 0.04 0.03 0.00 0.00 0.02 0.04 0.11 0.13 0.13 0.15 0.14 0.14 0.14 0.16
0.04 0.01 0.01 0.01 0.00 0.03 0.07 0.11 0.23 0.31 0.26 0.15 0.11 0.10 0.09 0.06 0.06 0.07 0.01 0.00 0.00 0.00 0.00 0.01 0.01 0.01 0.00 0.00 0.03 0.05 0.02 0.00 0.00 0.01 0.03 0.04 0.05 0.07 0.10 0.09 0.07 0.06 0.06
0.04 0.05 0.03 0.00 0.00 0.02 0.10 0.26 0.41 0.30 0.21 0.12 0.07 0.05 0.11 0.07 0.10 0.08 0.01 0.00 0.01 0.00 0.00 0.01 0.01 0.00 0.00 0.00 0.02 0.02 0.01 0.00 0.01 0.02 0.02 0.02 0.03 0.03 0.03 0.03 0.02 0.02 0.02
0.01 0.03 0.05 0.02 0.00 0.01 0.08 0.24 0.40 0.43 0.34 0.26 0.06 0.03 0.07 0.03 0.02 0.03 0.01 0.02 0.03 0.00 0.00 0.00 0.00 0.00 0.00 0.00 0.00 0.00 0.01 0.01 0.03 0.05 0.02 0.02 0.03 0.05 0.05 0.03 0.02 0.01 0.01
0.00 0.00 0.02 0.03 0.00 0.00 0.01 0.03 0.10 0.16 0.16 0.16 0.07 0.02 0.02 0.01 0.00 0.00 0.00 0.01 0.01 0.00 0.00 0.00 0.00 0.00 0.00 0.00 0.00 0.00 0.01 0.02 0.12 0.15 0.10 0.07 0.08 0.11 0.11 0.07 0.03 0.02 0.02
0.00 0.00 0.00 0.01 0.01 0.00 0.00 0.01 0.02 0.04 0.06 0.05 0.06 0.06 0.02 0.01 0.00 0.00 0.00 0.00 0.00 0.00 0.00 0.00 0.00 0.00 0.00 0.00 0.00 0.00 0.02 0.06 0.14 0.14 0.16 0.21 0.23 0.27 0.24 0.20 0.13 0.07 0.05
0.00 0.00 0.00 0.00 0.01 0.00 0.00 0.00 0.00 0.02 0.03 0.02 0.01 0.03 0.02 0.00 0.00 0.00 0.00 0.00 0.00 0.00 0.00 0.00 0.00 0.00 0.00 0.00 0.00 0.00 0.00 0.03 0.09 0.11 0.15 0.24 0.34 0.31 0.34 0.35 0.28 0.18 0.14
0.00 0.00 0.00 0.00 0.01 0.00 0.01 0.01 0.00 0.01 0.02 0.02 0.01 0.01 0.01 0.00 0.00 0.00 0.00 0.00 0.00 0.00 0.00 0.00 0.00 0.00 0.00 0.00 0.00 0.00 0.00 0.00 0.00 0.01 0.03 0.07 0.18 0.32 0.39 0.41 0.34 0.29 0.23
0.00 0.00 0.00 0.00 0.00 0.00 0.01 0.01 0.02 0.02 0.03 0.03 0.03 0.01 0.01 0.02 0.02 0.02 0.03 0.03 0.01 0.00 0.00 0.00 0.00 0.00 0.00 0.00 0.00 0.00 0.00 0.00 0.00 0.00 0.01 0.02 0.06 0.13 0.27 0.29 0.27 0.29 0.25
0.00 0.00 0.00 0.00 0.01 0.01 0.02 0.04 0.06 0.10 0.13 0.11 0.09 0.06 0.08 0.10 0.11 0.13 0.14 0.14 0.07 0.02 0.01 0.01 0.01 0.00 0.00 0.01 0.00 0.00 0.00 0.00 0.00 0.00 0.00 0.00 0.01 0.04 0.08 0.08 0.09 0.10 0.14
0.02 0.01 0.00 0.01 0.02 0.04 0.08 0.10 0.22 0.30 0.29 0.32 0.29 0.18 0.22 0.30 0.35 0.38 0.36 0.36 0.26 0.15 0.12 0.08 0.08 0.05 0.03 0.02 0.01 0.01 0.00 0.00 0.00 0.00 0.00 0.00 0.00 0.00 0.01 0.01 0.03 0.02 0.04
0.04 0.01 0.00 0.01 0.03 0.08 0.12 0.17 0.33 0.54 0.49 0.51 0.48 0.33 0.36 0.51 0.67 0.73 0.68 0.64 0.52 0.43 0.36 0.33 0.38 0.35 0.21 0.05 0.03 0.02 0.00 0.00 0.00 0.00 0.00 0.00 0.00 0.00 0.00 0.00 0.01 0.02 0.02
0.06 0.03 0.02 0.03 0.06 0.10 0.14 0.22 0.32 0.37 0.27 0.31 0.37 0.40 0.37 0.40 0.56 0.69 0.80 0.74 0.62 0.59 0.63 0.66 0.75 0.75 0.49 0.21 0.12 0.09 0.04 0.02 0.00 0.00 0.00 0.00 0.00 0.00 0.00 0.00 0.00 0.00 0.01
0.06 0.05 0.04 0.06 0.11 0.18 0.25 0.34 0.35 0.33 0.34 0.42 0.43 0.48 0.48 0.42 0.42 0.46 0.61 0.64 0.58 0.56 0.66 0.74 0.92 1.10 0.86 0.55 0.34 0.26 0.22 0.20 0.06 0.00 0.00 0.00 0.00 0.00 0.00 0.00 0.00 0.00 0.00
0.05 0.05 0.07 0.13 0.24 0.38 0.49 0.54 0.55 0.55 0.53 0.49 0.48 0.48 0.37 0.33 0.32 0.31 0.38 0.45 0.51 0.50 0.61 0.68 0.80 1.08 1.16 0.92 0.67 0.42 0.26 0.18 0.11 0.07 0.01 0.00 0.00 0.00 0.00 0.00 0.00 0.00 0.00
0.09 0.12 0.19 0.36 0.56 0.74 0.83 0.83 0.80 0.68 0.58 0.48 0.39 0.34 0.32 0.28 0.22 0.19 0.27 0.28 0.30 0.36 0.48 0.69 0.83 1.01 1.14 1.02 0.86 0.72 0.60 0.41 0.20 0.13 0.12 0.03 0.00 0.00 0.00 0.00 0.00 0.00 0.00
0.38 0.51 0.70 0.92 1.04 1.07 1.07 0.98 0.86 0.72 0.60 0.48 0.34 0.26 0.23 0.24 0.24 0.25 0.27 0.21 0.16 0.21 0.31 0.46 0.66 0.87 1.07 1.09 0.90 0.75 0.71 0.64 0.54 0.37 0.20 0.10 0.04 0.01 0.00 0.00 0.00 0.00 0.00